Regional Weather Roundup
Issued by NWS

Home | Current Version | Previous Version | Graphics & Text | Print | Product List | Glossary On
Versions: 1 2 3 4 5 6 7 8 9 10 11 12 13 14 15 16 17 18 19 20 21 22 23 24 25 26 27 28 29 30 31 32 33 34 35 36 37 38 39 40 41 42 43 44 45 46 47 48 49 50
000
ASUS45 KCYS 021410
RWRWY

WYOMING REGIONAL WEATHER ROUNDUP
NATIONAL WEATHER SERVICE CHEYENNE WY
700 AM MST MON MAR 02 2015

NOTE:  "FAIR" INDICATES FEW OR NO CLOUDS BELOW 12,000 FEET
WITH NO SIGNIFICANT WEATHER AND/OR OBSTRUCTIONS TO VISIBILITY.

WYZ001-021500-
YELLOWSTONE NATIONAL PARK

CITY           SKY/WX    TMP DP  RH WIND       PRES   REMARKS
LK YELLOWSTONE   N/A    -12 -17  78 CALM      29.84F
W YELLOWSTONE  NOT AVBL

$$
WYZ002>013-054>058-071-098>099-021500-
NORTHERN WYOMING

CITY           SKY/WX    TMP DP  RH WIND       PRES   REMARKS
JACKSON        CLEAR      1   0  92 VRB7      29.89R WCI -11
CODY           FAIR      16  12  86 CALM      29.81F
GREYBULL       FAIR      12   6  77 SE3       29.89F
WORLAND        FAIR      14  10  84 SW6       29.90F WCI   5
SHERIDAN       FAIR       6   0  76 N5        29.85F WCI  -3
BUFFALO        FAIR      22  -4  32 W8        29.81F WCI  12
GILLETTE       FAIR      17  10  74 S7        29.87F WCI   8
HULETT         FAIR      28  18  64 SW14      29.86F WCI  17
NEWCASTLE      FAIR      25  16  68 SE13G18   29.95F WCI  13

$$
WYZ014>020-022>026-101>103-021500-
CENTRAL WYOMING

CITY           SKY/WX    TMP DP  RH WIND       PRES   REMARKS
BIG PINEY      MOCLDY    13   8  81 E3        29.87F
PINEDALE       FAIR       7   3  85 W7        29.87F WCI  -5
DUBOIS         FAIR      14   9  79 W13       29.81S WCI   0
LANDER         FAIR      10   5  80 CALM      29.87F
RIVERTON       FAIR       9   4  80 CALM      29.89F
CASPER         FAIR      19  15  84 SE5       29.86F WCI  12
DOUGLAS        FAIR      25  18  74 SE13      29.90F WCI  14

$$
WYZ021-027>030-104>119-021500-
SOUTHERN WYOMING

CITY           SKY/WX    TMP DP  RH WIND       PRES   REMARKS
EVANSTON       LGT SNOW  23  20  88 E13       29.79F FOG     WCI  11
KEMMERER       CLOUDY    23  19  86 CALM      29.83F
FORT BRIDGER   LGT SNOW  22  19  88 NE5       29.87F WCI  16
ROCK SPRINGS   LGT SNOW  22  17  81 NE5       29.84F WCI  16
DIXON          LGT SNOW  31  30  96 CALM      29.87F
RAWLINS        LGT SNOW  22  20  92 CALM      29.86F FOG
SARATOGA       SNOW      30  30 100 SE7       29.86F VSB 1/4 WCI  23
LARAMIE        CLOUDY    22  19  89 S9        29.86F WCI  12
CHEYENNE       CLOUDY    20  18  92 S9        29.94F FOG     WCI   9
TORRINGTON     CLOUDY    29  18  63 SE12      29.98F WCI  19
PINE BLUFFS    PTSUNNY   23  21  93 S7        30.00F WCI  15

$$


USA.gov is the U.S. government's official web portal to all federal, state and local government web resources and services.